When you browse on this site, cookies collect data to enhance your experience and personalize the content and advertising you see.
Visit our Privacy Policy to learn more. By continuing to use the site, you agree to this use of cookies and data.
  • In Schweiz
  • Länderverzeichnis
  • Für 7 Tage
  • Wassertemperatur
  • Wetterkarte
  • Widgets
  • user-avatar
    Anmelden

    Stündliche Wetter Tykhyi Khutir

    Heute, 31 März, Dienstag

    Zeit Temperatur Niederschläge Wind Luftdruck Luftfeuchtigkeit
    00:00 -2°C° 0 mm 6 m/S 739 mmHg 74%
    01:00 -2°C° 0 mm 6 m/S 739 mmHg 74%
    02:00 -3°C° 0 mm 6 m/S 739 mmHg 75%
    03:00 -3°C° 0 mm 6 m/S 739 mmHg 75%
    04:00 -4°C° 0 mm 6 m/S 740 mmHg 76%
    05:00 -4°C° 0 mm 6 m/S 740 mmHg 77%
    06:00 -4°C° 0 mm 6 m/S 740 mmHg 74%
    07:00 -4°C° 0 mm 6 m/S 741 mmHg 71%
    08:00 -4°C° 0 mm 6 m/S 741 mmHg 68%
    09:00 -3°C° 0.1 mm 6 m/S 741 mmHg 63%
    10:00 -2°C° 0.1 mm 6 m/S 742 mmHg 58%
    11:00 -1°C° 0.1 mm 6 m/S 742 mmHg 53%
    12:00 -1°C° 0.1 mm 6 m/S 742 mmHg 51%
    13:00 +1°C° 0.1 mm 6 m/S 742 mmHg 49%
    14:00 +1°C° 0.1 mm 6 m/S 742 mmHg 47%
    15:00 +1°C° 0 mm 5 m/S 742 mmHg 43%
    16:00 +1°C° 0 mm 5 m/S 742 mmHg 40%
    17:00 +1°C° 0 mm 5 m/S 742 mmHg 36%
    18:00 +1°C° 0 mm 4 m/S 743 mmHg 40%
    19:00 +1°C° 0 mm 3 m/S 743 mmHg 44%
    20:00 0°C° 0 mm 3 m/S 743 mmHg 47%
    21:00 -1°C° 0 mm 2 m/S 743 mmHg 49%
    22:00 -1°C° 0 mm 2 m/S 744 mmHg 50%
    23:00 0°C° 0 mm 1 m/S 744 mmHg 51%

    Morgen, 1 April, Mittwoch

    Zeit Temperatur Niederschläge Wind Luftdruck Luftfeuchtigkeit
    00:00 -2°C° 0 mm 2 m/S 744 mmHg 51%
    01:00 -2°C° 0 mm 2 m/S 744 mmHg 51%
    02:00 -2°C° 0 mm 2 m/S 744 mmHg 51%
    03:00 -2°C° 0 mm 2 m/S 744 mmHg 51%
    04:00 -2°C° 0 mm 3 m/S 743 mmHg 51%
    05:00 -4°C° 0 mm 3 m/S 743 mmHg 51%
    06:00 -2°C° 0 mm 4 m/S 743 mmHg 46%
    07:00 -1°C° 0 mm 4 m/S 743 mmHg 41%
    08:00 0°C° 0 mm 5 m/S 743 mmHg 35%
    09:00 +1°C° 0 mm 5 m/S 743 mmHg 34%
    10:00 +3°C° 0 mm 6 m/S 743 mmHg 33%
    11:00 +4°C° 0 mm 6 m/S 743 mmHg 32%
    12:00 +4°C° 0 mm 6 m/S 742 mmHg 32%
    13:00 +5°C° 0 mm 6 m/S 742 mmHg 32%
    14:00 +5°C° 0 mm 7 m/S 742 mmHg 31%
    15:00 +5°C° 0 mm 7 m/S 741 mmHg 33%
    16:00 +4°C° 0 mm 6 m/S 741 mmHg 35%
    17:00 +4°C° 0 mm 6 m/S 740 mmHg 37%
    18:00 +3°C° 0 mm 5 m/S 740 mmHg 41%
    19:00 +3°C° 0 mm 4 m/S 741 mmHg 46%
    20:00 +2°C° 0 mm 3 m/S 741 mmHg 50%
    21:00 +2°C° 0 mm 3 m/S 741 mmHg 51%
    22:00 +1°C° 0 mm 3 m/S 741 mmHg 52%
    23:00 +1°C° 0 mm 3 m/S 741 mmHg 52%

    übermorgen, 2 April, Donnerstag

    Zeit Temperatur Niederschläge Wind Luftdruck Luftfeuchtigkeit
    00:00 -1°C° 0 mm 4 m/S 740 mmHg 52%
    01:00 -1°C° 0 mm 4 m/S 740 mmHg 52%
    02:00 -1°C° 0 mm 4 m/S 740 mmHg 52%
    03:00 -2°C° 0 mm 4 m/S 740 mmHg 51%
    04:00 -2°C° 0 mm 4 m/S 740 mmHg 50%
    05:00 -2°C° 0 mm 4 m/S 740 mmHg 49%
    06:00 -1°C° 0 mm 4 m/S 740 mmHg 46%
    07:00 0°C° 0 mm 5 m/S 740 mmHg 43%
    08:00 +2°C° 0 mm 5 m/S 740 mmHg 39%
    09:00 +3°C° 0 mm 5 m/S 740 mmHg 37%
    10:00 +6°C° 0 mm 5 m/S 740 mmHg 36%
    11:00 +7°C° 0 mm 6 m/S 739 mmHg 34%
    12:00 +8°C° 0 mm 6 m/S 739 mmHg 33%
    13:00 +8°C° 0 mm 6 m/S 739 mmHg 33%
    14:00 +9°C° 0 mm 6 m/S 739 mmHg 32%
    15:00 +9°C° 0 mm 6 m/S 739 mmHg 33%
    16:00 +9°C° 0 mm 5 m/S 738 mmHg 34%
    17:00 +9°C° 0 mm 5 m/S 738 mmHg 35%
    18:00 +7°C° 0 mm 4 m/S 738 mmHg 39%
    19:00 +7°C° 0 mm 3 m/S 738 mmHg 42%
    20:00 +6°C° 0 mm 2 m/S 738 mmHg 46%
    21:00 +5°C° 0 mm 2 m/S 738 mmHg 47%
    22:00 +5°C° 0 mm 2 m/S 738 mmHg 48%
    23:00 +4°C° 0 mm 2 m/S 738 mmHg 49%

    3 April, Freitag

    Zeit Temperatur Niederschläge Wind Luftdruck Luftfeuchtigkeit
    00:00 +4°C° 0 mm 2 m/S 738 mmHg 49%
    01:00 +3°C° 0 mm 2 m/S 738 mmHg 50%
    02:00 +3°C° 0 mm 2 m/S 738 mmHg 50%
    03:00 +3°C° 0 mm 2 m/S 738 mmHg 51%
    04:00 +1°C° 0 mm 3 m/S 738 mmHg 51%
    05:00 +1°C° 0 mm 3 m/S 738 mmHg 52%
    06:00 +2°C° 0 mm 3 m/S 738 mmHg 50%
    07:00 +3°C° 0 mm 3 m/S 738 mmHg 48%
    08:00 +5°C° 0 mm 4 m/S 738 mmHg 46%
    09:00 +6°C° 0 mm 4 m/S 738 mmHg 42%
    10:00 +8°C° 0 mm 5 m/S 738 mmHg 37%
    11:00 +10°C° 0 mm 5 m/S 738 mmHg 33%
    12:00 +10°C° 0 mm 5 m/S 738 mmHg 33%
    13:00 +11°C° 0 mm 6 m/S 738 mmHg 33%
    14:00 +13°C° 0 mm 6 m/S 737 mmHg 33%
    15:00 +11°C° 0 mm 6 m/S 737 mmHg 34%
    16:00 +12°C° 0 mm 5 m/S 737 mmHg 35%
    17:00 +12°C° 0 mm 5 m/S 737 mmHg 36%
    18:00 +11°C° 0 mm 4 m/S 737 mmHg 40%
    19:00 +8°C° 0 mm 4 m/S 738 mmHg 44%
    20:00 +8°C° 0 mm 3 m/S 738 mmHg 48%
    21:00 +8°C° 0 mm 3 m/S 738 mmHg 51%
    22:00 +7°C° 0 mm 3 m/S 739 mmHg 54%
    23:00 +7°C° 0 mm 3 m/S 739 mmHg 57%

    4 April, Samstag

    Zeit Temperatur Niederschläge Wind Luftdruck Luftfeuchtigkeit
    00:00 +5°C° 0 mm 3 m/S 740 mmHg 62%
    01:00 +5°C° 0 mm 3 m/S 740 mmHg 67%
    02:00 +4°C° 0 mm 3 m/S 740 mmHg 71%
    03:00 +4°C° 0 mm 3 m/S 741 mmHg 75%
    04:00 +3°C° 0 mm 3 m/S 741 mmHg 78%
    05:00 +2°C° 0 mm 3 m/S 742 mmHg 81%
    06:00 +3°C° 0 mm 3 m/S 742 mmHg 76%
    07:00 +4°C° 0 mm 4 m/S 743 mmHg 70%
    08:00 +5°C° 0 mm 4 m/S 744 mmHg 65%
    09:00 +6°C° 0 mm 4 m/S 744 mmHg 58%
    10:00 +8°C° 0 mm 5 m/S 744 mmHg 51%
    11:00 +9°C° 0 mm 5 m/S 745 mmHg 44%
    12:00 +9°C° 0 mm 5 m/S 745 mmHg 43%
    13:00 +9°C° 0 mm 5 m/S 745 mmHg 42%
    14:00 +9°C° 0 mm 5 m/S 745 mmHg 42%
    15:00 +9°C° 0 mm 5 m/S 745 mmHg 41%
    16:00 +9°C° 0 mm 5 m/S 745 mmHg 40%
    17:00 +9°C° 0 mm 5 m/S 745 mmHg 39%
    18:00 +8°C° 0 mm 4 m/S 746 mmHg 43%
    19:00 +7°C° 0 mm 3 m/S 746 mmHg 47%
    20:00 +5°C° 0 mm 3 m/S 747 mmHg 51%
    21:00 +4°C° 0 mm 3 m/S 747 mmHg 52%
    22:00 +4°C° 0 mm 3 m/S 748 mmHg 53%
    23:00 +4°C° 0 mm 2 m/S 749 mmHg 54%

    5 April, Sonntag

    Zeit Temperatur Niederschläge Wind Luftdruck Luftfeuchtigkeit
    00:00 +4°C° 0 mm 2 m/S 749 mmHg 56%
    01:00 +3°C° 0 mm 2 m/S 749 mmHg 59%
    02:00 +3°C° 0 mm 2 m/S 750 mmHg 61%
    03:00 +2°C° 0 mm 2 m/S 750 mmHg 63%
    04:00 +2°C° 0 mm 2 m/S 751 mmHg 64%
    05:00 +1°C° 0 mm 2 m/S 751 mmHg 66%
    06:00 +1°C° 0 mm 3 m/S 751 mmHg 62%
    07:00 +2°C° 0 mm 3 m/S 752 mmHg 58%
    08:00 +3°C° 0 mm 3 m/S 752 mmHg 54%
    09:00 +5°C° 0 mm 3 m/S 753 mmHg 48%
    10:00 +7°C° 0 mm 3 m/S 753 mmHg 41%
    11:00 +8°C° 0 mm 3 m/S 753 mmHg 34%
    12:00 +9°C° 0 mm 3 m/S 753 mmHg 32%
    13:00 +9°C° 0 mm 3 m/S 753 mmHg 30%
    14:00 +10°C° 0 mm 3 m/S 753 mmHg 28%
    15:00 +10°C° 0 mm 3 m/S 753 mmHg 28%
    16:00 +10°C° 0 mm 2 m/S 753 mmHg 28%
    17:00 +10°C° 0 mm 2 m/S 752 mmHg 29%
    18:00 +8°C° 0 mm 3 m/S 752 mmHg 33%
    19:00 +7°C° 0 mm 3 m/S 753 mmHg 38%
    20:00 +5°C° 0 mm 3 m/S 753 mmHg 42%
    21:00 +4°C° 0 mm 3 m/S 753 mmHg 44%
    22:00 +4°C° 0 mm 3 m/S 753 mmHg 46%
    23:00 +3°C° 0 mm 3 m/S 753 mmHg 48%
    Mehr zeigen